Stations météo

réclame
Mon MeteoGroup
San Sebastian/Fuenterrabia, Espagne (8029): Température de l'air & dewpoint: 15.01.2019 17:00:00 - 21.01.2019 17:00:00 (CET)San Sebastian/Fuenterrabia, Espagne (8029): Vitesse du vent: 15.01.2019 17:00:00 - 21.01.2019 17:00:00 (CET)San Sebastian/Fuenterrabia, Espagne (8029): Direction du vent: 15.01.2019 17:00:00 - 21.01.2019 17:00:00 (CET)San Sebastian/Fuenterrabia, Espagne (8029): reduced air pressure: 15.01.2019 17:00:00 - 21.01.2019 17:00:00 (CET)San Sebastian/Fuenterrabia, Espagne (8029): visibility: 15.01.2019 17:00:00 - 21.01.2019 17:00:00 (CET)
Date & Time tt [°C] td [°C] ff [km/h] ff [knt] dd ppp [hPa] vv [km]
21.01.2019 17:00:00 8,0 5,0 8 4 NNE - 10
21.01.2019 16:00:00 8,2 4,8 4 2 - 1023,7 10
21.01.2019 15:00:00 9,0 5,0 2 1 - - 10
21.01.2019 14:00:00 8,0 5,0 4 2 - - 10
21.01.2019 13:00:00 7,5 4,3 9 5 E 1024,7 12
21.01.2019 12:00:00 7,0 6,0 2 1 - - 10
21.01.2019 11:00:00 7,0 6,0 4 2 - - 10
21.01.2019 10:00:00 7,1 6,2 8 4 E 1023,4 10
21.01.2019 09:00:00 7,0 6,0 8 4 S - 10
21.01.2019 08:00:00 7,0 6,0 8 4 SSW - 10
21.01.2019 07:00:00 7,0 6,1 4 2 - 1021,8 10
21.01.2019 06:00:00 7,0 6,0 5 3 SSW - 10
21.01.2019 05:00:00 7,0 6,0 4 2 - - 10
21.01.2019 04:00:00 7,0 6,0 8 4 SSW - 10
21.01.2019 03:00:00 7,0 6,0 4 2 - - 10
21.01.2019 02:00:00 8,0 6,0 8 4 E - 9
21.01.2019 01:00:00 8,0 6,0 4 2 - - 10
21.01.2019 00:00:00 9,0 5,0 9 5 E - 10
20.01.2019 23:00:00 9,0 6,0 8 4 NE - 10
20.01.2019 22:00:00 9,0 7,0 8 4 SE - 10
20.01.2019 21:00:00 9,0 7,0 5 3 NW - 9
20.01.2019 20:00:00 10,0 7,0 9 5 NW - 8
20.01.2019 19:00:00 9,2 7,0 4 2 WNW 1017,4 15
20.01.2019 18:00:00 10,0 7,0 5 3 NW - 10
20.01.2019 17:00:00 11,0 7,0 9 5 N - 10
20.01.2019 16:00:00 11,0 7,3 11 6 NNW 1015,6 15
20.01.2019 15:00:00 10,0 7,0 9 5 NW - 10
20.01.2019 14:00:00 11,0 6,0 13 7 NNW - 10
20.01.2019 13:00:00 11,4 6,7 11 6 NNW 1015,2 10
20.01.2019 12:00:00 11,0 7,0 5 3 NW - 10
20.01.2019 11:00:00 9,0 6,0 21 11 WNW - 9
20.01.2019 10:00:00 9,4 6,3 15 8 NW 1013,4 10
20.01.2019 09:00:00 8,0 7,0 9 5 WSW - 10
20.01.2019 08:00:00 8,0 7,0 11 6 SSW - 9
20.01.2019 07:00:00 8,6 5,5 13 7 SW 1011,5 15
20.01.2019 06:00:00 9,0 5,0 13 7 SW - 10
20.01.2019 05:00:00 8,0 6,0 8 4 S - 10
20.01.2019 04:00:00 8,0 6,0 8 4 SW - 10
20.01.2019 03:00:00 8,0 6,0 8 4 SW - 10
20.01.2019 02:00:00 8,0 6,0 5 3 SW - 10
20.01.2019 01:00:00 9,0 6,0 4 2 - - 10
20.01.2019 00:00:00 10,0 5,0 2 1 - - 10
19.01.2019 23:00:00 11,0 4,0 4 2 - - 10
19.01.2019 22:00:00 11,0 4,0 11 6 S - 10
19.01.2019 21:00:00 11,0 5,0 9 5 S - 10
19.01.2019 20:00:00 11,0 4,0 15 8 S - 10
19.01.2019 19:00:00 11,0 3,3 11 6 S 1008,1 10
19.01.2019 18:00:00 11,0 3,0 8 4 SW - 10
19.01.2019 17:00:00 12,0 4,0 11 6 SSW - 10
19.01.2019 16:00:00 12,2 3,4 15 8 SSW 1009,5 10
19.01.2019 15:00:00 12,0 5,0 15 8 SE - 10
19.01.2019 14:00:00 12,0 5,0 11 6 SSE - 10
19.01.2019 13:00:00 11,7 5,1 5 3 SE 1012,8 10
19.01.2019 12:00:00 11,0 6,0 8 4 S - 10
19.01.2019 11:00:00 11,0 5,0 9 5 SSW - 10
19.01.2019 10:00:00 8,4 6,0 9 5 SSW 1014,5 10
19.01.2019 09:00:00 7,0 5,0 8 4 SW - 10
19.01.2019 08:00:00 8,0 6,0 15 8 SW - 10
19.01.2019 07:00:00 8,0 5,1 9 5 SW 1014,8 10
19.01.2019 06:00:00 7,0 5,0 11 6 SW - 10
19.01.2019 05:00:00 8,0 6,0 11 6 SW - 10
19.01.2019 04:00:00 8,0 6,0 15 8 SW - 9
19.01.2019 03:00:00 7,0 5,0 9 5 SW - 10
19.01.2019 02:00:00 7,0 6,0 13 7 SW - 8
19.01.2019 01:00:00 7,0 5,0 9 5 SW - 10
19.01.2019 00:00:00 7,0 5,0 9 5 S - 10
18.01.2019 23:00:00 8,0 5,0 8 4 S - 10
18.01.2019 22:00:00 8,0 6,0 4 2 - - 10
18.01.2019 21:00:00 7,0 5,0 8 4 S - 10
18.01.2019 20:00:00 7,0 6,0 5 3 S - 10
18.01.2019 19:00:00 8,6 6,2 4 2 S 1017,2 10
18.01.2019 18:00:00 9,0 6,0 5 3 S - 10
18.01.2019 17:00:00 10,0 6,0 5 3 SSW - 10
18.01.2019 16:00:00 10,0 4,8 2 1 - 1018,1 10
18.01.2019 15:00:00 10,0 5,0 8 4 SW - 10
18.01.2019 14:00:00 9,0 6,0 5 3 SW - 10
18.01.2019 13:00:00 7,9 6,4 5 3 S 1019,8 10
18.01.2019 12:00:00 8,0 6,0 8 4 S - 9
18.01.2019 11:00:00 8,0 5,0 8 4 S - 10
18.01.2019 10:00:00 6,8 5,0 9 5 S 1020,2 10
18.01.2019 09:00:00 7,0 5,0 9 5 S - 10
18.01.2019 08:00:00 6,0 5,0 9 5 S - 10
18.01.2019 07:00:00 6,2 4,8 11 6 SSW 1020,3 10
18.01.2019 06:00:00 6,0 5,0 11 6 S - 10
18.01.2019 05:00:00 7,0 5,0 8 4 S - 9
18.01.2019 04:00:00 6,0 5,0 9 5 S - 10
18.01.2019 03:00:00 7,0 5,0 8 4 S - 10
18.01.2019 02:00:00 7,0 5,0 13 7 SSW - 10
18.01.2019 01:00:00 7,0 6,0 18 10 SW - 8
18.01.2019 00:00:00 6,0 5,0 9 5 SSW - 10
17.01.2019 23:00:00 7,0 5,0 11 6 SSE - 10
17.01.2019 22:00:00 6,0 5,0 9 5 SSW - 10
17.01.2019 21:00:00 7,0 5,0 9 5 SSW - 10
17.01.2019 20:00:00 8,0 6,0 11 6 SW - 10
17.01.2019 19:00:00 8,2 7,3 9 5 SW 1021,5 10
17.01.2019 18:00:00 9,0 7,0 11 6 SW - 10
17.01.2019 17:00:00 9,0 7,0 8 4 WSW - 10
17.01.2019 16:00:00 10,4 6,9 18 10 SW 1020,4 20
17.01.2019 15:00:00 10,0 7,0 13 7 WSW - 10
17.01.2019 14:00:00 9,0 7,0 15 8 W - 10
17.01.2019 13:00:00 10,0 6,2 16 9 W 1021,1 7
17.01.2019 12:00:00 11,0 6,0 13 7 SW - 10
17.01.2019 11:00:00 9,0 7,0 13 7 SW - 10
17.01.2019 10:00:00 9,1 6,7 4 2 - 1020,5 10
17.01.2019 09:00:00 9,0 7,0 5 3 WNW - 10
17.01.2019 08:00:00 9,0 7,0 8 4 WSW - 10
17.01.2019 07:00:00 9,1 8,0 8 4 WSW 1018,6 10
17.01.2019 06:00:00 9,0 8,0 9 5 SW - 10
17.01.2019 05:00:00 9,0 8,0 11 6 SW - 7
17.01.2019 04:00:00 9,0 8,0 11 6 WSW - 2,4
17.01.2019 03:00:00 9,0 7,0 11 6 SW - 3,5
17.01.2019 02:00:00 10,0 6,0 9 5 SW - 10
17.01.2019 01:00:00 9,0 6,0 9 5 S - 10
17.01.2019 00:00:00 10,0 6,0 9 5 SSW - 10
16.01.2019 23:00:00 10,0 7,0 9 5 SSW - 10
16.01.2019 22:00:00 10,0 6,0 9 5 SSW - 10
16.01.2019 21:00:00 9,0 6,0 8 4 S - 10
16.01.2019 20:00:00 9,0 7,0 4 2 - - 10
16.01.2019 19:00:00 9,4 6,8 8 4 S 1016,9 10
16.01.2019 18:00:00 11,0 7,0 8 4 S - 10
16.01.2019 17:00:00 12,0 7,0 8 4 W - 10
16.01.2019 16:00:00 14,2 6,8 9 5 WNW 1016,3 10
16.01.2019 15:00:00 13,0 8,0 11 6 WNW - 10
16.01.2019 14:00:00 13,0 7,0 13 7 WNW - 10
16.01.2019 13:00:00 13,0 8,7 18 10 WNW 1017,4 10
16.01.2019 12:00:00 12,0 6,0 2 1 - - 10
16.01.2019 11:00:00 7,0 5,0 2 1 - - 10
16.01.2019 10:00:00 5,6 4,7 5 3 SSW 1016,9 20
16.01.2019 09:00:00 4,0 3,0 4 2 - - 10
16.01.2019 08:00:00 3,0 3,0 4 2 - - 10
16.01.2019 07:00:00 1,6 1,0 5 3 SSW 1015,7 12
16.01.2019 06:00:00 2,0 2,0 5 3 SSW - 10
16.01.2019 05:00:00 2,0 2,0 5 3 SW - 9
16.01.2019 04:00:00 2,0 2,0 5 3 SSW - 5
16.01.2019 03:00:00 3,0 3,0 8 4 SW - 10
16.01.2019 02:00:00 4,0 3,0 5 3 SSW - 9
16.01.2019 01:00:00 3,0 3,0 5 3 SSW - 10
16.01.2019 00:00:00 4,0 4,0 5 3 SSW - 6
15.01.2019 23:00:00 5,0 4,0 4 2 - - 10
15.01.2019 22:00:00 5,0 4,0 5 3 S - 10
15.01.2019 21:00:00 6,0 5,0 4 2 S - 10
15.01.2019 20:00:00 7,0 6,0 2 1 - - 10
15.01.2019 19:00:00 9,2 6,6 5 3 ENE 1019,9 10
15.01.2019 18:00:00 10,0 7,0 13 7 NE - 10
15.01.2019 17:00:00 11,0 7,0 13 7 NE - 10

tt = Température de l'air
td = dewpoint
ff = Vitesse du vent
dd = Direction du vent
ppp = reduced air pressure
vv = visibility

stations d'obs. à proximité